Regional Weather Roundup
Issued by NWS Newport/Morehead, NC

Home | Current Version | Previous Version | Text Only | Print | Product List | Glossary On
Versions: 1 2 3 4 5 6 7 8 9 10 11 12 13 14 15 16 17 18 19 20 21 22 23 24 25 26 27 28 29 30 31 32 33 34 35 36 37 38 39 40 41 42 43 44 45 46 47 48 49 50
000
ASUS42 KMHX 051325
RWRMHX
WEATHER ROUNDUP FOR EASTERN NORTH CAROLINA
NATIONAL WEATHER SERVICE NEWPORT/MOREHEAD CITY NC
900 AM EDT THU MAY 05 2016

NOTE: "FAIR" INDICATES FEW OR NO CLOUDS BELOW 12,000 FEET
WITH NO SIGNIFICANT WEATHER AND/OR OBSTRUCTIONS TO VISIBILITY

NCZ015>017-031-032-045>047-102-103-051400-
NORTH COAST

CITY           SKY/WX    TMP DP  RH WIND       PRES   REMARKS
EDENTON        CLOUDY    55  55 100 NE9G17    29.59S FOG
ELIZABETH CITY CLOUDY    52  51  97 NE14      29.59S
KITTY HAWK     CLOUDY    52  52 100 N7G20     29.56S FOG
MANTEO         CLOUDY    52  52 100 NE20      29.56F FOG

$$

NCZ045>047-081-094-103-104-051400-
CENTRAL COAST

CITY           SKY/WX    TMP DP  RH WIND       PRES   REMARKS
FRISCO         CLOUDY    58  56  93 NE10G21   29.51F
SWANQUARTER    NOT AVBL

$$

NCZ095-097-098-100-101-051400-
SOUTHERN COAST

CITY           SKY/WX    TMP DP  RH WIND       PRES   REMARKS
BEAUFORT       CLOUDY    63  56  78 N13       29.52F
CEDAR ISLAND   NOT AVBL
JACKSONVILLE   PTSUNNY   64  58  80 NE6       29.52F
PINEY ISLAND   CLOUDY   N/A N/A N/A NE13      29.53S
WILMINGTON     MOSUNNY   67  61  81 CALM      29.52S


$$

NCZ011>013-027>030-043-044-078>080-089-090>093-098-051400-
COASTAL PLAIN

CITY           SKY/WX    TMP DP  RH WIND       PRES   REMARKS
AHOSKIE        CLOUDY    55  52  90 NE7       29.59F
CLINTON        CLOUDY    64  61  90 CALM      29.54S
ELIZABETHTOWN  PTSUNNY   63  58  85 CALM      29.54S
GOLDSBORO      CLOUDY    60  60 100 NE7       29.53S
GREENVILLE     CLOUDY    57  55  94 NE8       29.60F
HAVELOCK       PTSUNNY   63  57  81 NE16      29.53F
KENANSVILLE    CLOUDY    61  59  93 CALM      29.55S
KINSTON        CLOUDY    61  57  88 E8        29.55F
NEW BERN       CLOUDY    62  55  77 N7        29.55S
RICHLANDS      CLOUDY    63  59  88 E7        29.54S
ROCKY MOUNT    CLOUDY    56  53  90 NE9       29.57S
WASHINGTON     CLOUDY    56  54  91 NE8       29.56F
WHITEVILLE     NOT AVBL

$$

AMZ130-135-150-152-154-156-158-170-250-252-270-ANZ085-086-088-633-658-670-051400-
MARINE OBSERVATIONS

STATION/POSITION TIME  TEMP    WIND        PRES    WAVE   SWELL
                       AIR SEA DIR/SP/G            HT/PER HT/PER
                 (UTC) (F)     (DEG/KT/KT) (MB)    (FT/S) (FT/S)
CHESAPEAKE LIGHT 1300   49      40/ 22/ 24 1002.6
64 E VA BEACH    1250   51 52   10/ 19/ 23 1000.3    6/ 7
DUCK             1300   52 61   10/ 18/ 24 1000.7
2 E DUCK         1211      59                N/A     5/ 6
OREGON INLET     1300   53 62  360/ 17/ 20 1000.2
13E OREGON INLT  1300      57                N/A     5/ 5   2/ 9
HATTERAS CG      1300   59 69   10/ 19/ 24  998.9
DIAMOND BUOY     1250   60 71   10/ 19/ 23  998.0    4/ 5   2/15
CAPE LOOKOUT     1300   63      10/ 13/ 18  999.0
BEAUFORT LAB     1300   62 66   10/ 11/ 16  998.7
30 SE NEW RVR IN 1225      73                N/A     4/ 7
27 SE WRIGHTSVLE 1308   67 72   40/ 14/ 19  999.5
5 SE WRIGHTSVLE  1308   67 69   60/ 10/ 14 1000.0
225 S CAPE HAT   1250   69 73  330/  4/  6  999.3    5/ 7   5/ 7
41 SE CHARLESTON 1250   65 74  280/ 21/ 25 1001.2    5/ 5   2/ 9

$$




USA.gov is the U.S. government's official web portal to all federal, state and local government web resources and services.